Time,TemperatureF,DewpointF,PressureIn,WindDirection,WindDirectionDegrees,WindSpeedMPH,WindSpeedGustMPH,Humidity,HourlyPrecipIn,Conditions,Clouds,dailyrainin,SolarRadiationWatts/m^2,SoftwareType,DateUTC
2013-02-18 00:02:00,13.0,9.0,-100.00,WNW,299,2.0,5.0,84,0.00,,,0.00,0.000000,,2013-02-18 05:02:00,
2013-02-18 00:32:00,13.0,9.0,-100.00,NW,318,3.0,7.0,83,0.00,,,0.00,0.000000,,2013-02-18 05:32:00,
2013-02-18 00:42:00,13.0,9.0,-100.00,NW,318,3.0,7.0,83,0.00,,,0.00,0.000000,,2013-02-18 05:42:00,
2013-02-18 00:52:00,13.0,9.0,-100.00,NW,318,3.0,7.0,83,0.00,,,0.00,0.000000,,2013-02-18 05:52:00,
2013-02-18 01:02:00,13.0,9.0,-100.00,NW,318,3.0,7.0,83,0.00,,,0.00,0.000000,,2013-02-18 06:02:00,
2013-02-18 02:32:00,13.0,9.0,-100.00,NNW,337,1.0,5.0,82,-99.99,,,0.00,0.000000,,2013-02-18 07:32:00,
2013-02-18 02:42:00,13.0,9.0,-100.00,NNW,337,1.0,5.0,82,-99.99,,,0.00,0.000000,,2013-02-18 07:42:00,
2013-02-18 02:52:00,13.0,9.0,-100.00,NNW,337,1.0,5.0,82,-99.99,,,0.00,0.000000,,2013-02-18 07:52:00,
2013-02-18 03:02:00,13.0,9.0,-100.00,NNW,337,1.0,5.0,82,-99.99,,,0.00,0.000000,,2013-02-18 08:02:00,
2013-02-18 03:33:00,13.0,9.0,-100.00,NNW,327,1.0,6.0,83,0.00,,,0.00,0.000000,,2013-02-18 08:33:00,
2013-02-18 03:42:00,13.0,9.0,-100.00,NNW,327,1.0,6.0,83,0.00,,,0.00,0.000000,,2013-02-18 08:42:00,
2013-02-18 03:52:00,13.0,9.0,-100.00,NNW,327,1.0,6.0,83,0.00,,,0.00,0.000000,,2013-02-18 08:52:00,
2013-02-18 04:03:00,13.0,9.0,-100.00,NNW,327,1.0,6.0,83,0.00,,,0.00,0.000000,,2013-02-18 09:03:00,
2013-02-18 04:32:00,12.0,8.0,-100.00,NNW,332,1.0,3.0,84,0.00,,,0.00,0.000000,,2013-02-18 09:32:00,
2013-02-18 04:42:00,12.0,8.0,-100.00,NNW,332,1.0,3.0,84,0.00,,,0.00,0.000000,,2013-02-18 09:42:00,
2013-02-18 04:52:00,12.0,8.0,-100.00,NNW,332,1.0,3.0,84,0.00,,,0.00,0.000000,,2013-02-18 09:52:00,
2013-02-18 05:01:00,12.0,8.0,-100.00,NNW,332,1.0,3.0,84,0.00,,,0.00,0.000000,,2013-02-18 10:01:00,
2013-02-18 05:32:00,9.0,5.0,-100.00,South,189,0.0,3.0,85,0.00,,,0.00,0.000000,,2013-02-18 10:32:00,
2013-02-18 05:42:00,9.0,5.0,-100.00,South,189,0.0,3.0,85,0.00,,,0.00,0.000000,,2013-02-18 10:42:00,
2013-02-18 05:53:00,9.0,5.0,-100.00,South,189,0.0,3.0,85,0.00,,,0.00,0.000000,,2013-02-18 10:53:00,
2013-02-18 06:02:00,9.0,5.0,-100.00,South,189,0.0,3.0,85,0.00,,,0.00,0.000000,,2013-02-18 11:02:00,
2013-02-18 06:33:00,6.0,2.0,-100.00,South,177,0.0,2.0,82,0.00,,,0.00,0.000000,,2013-02-18 11:33:00,
2013-02-18 06:53:00,6.0,2.0,-100.00,South,177,0.0,2.0,82,0.00,,,0.00,0.000000,,2013-02-18 11:53:00,
2013-02-18 07:02:00,6.0,2.0,-100.00,South,177,0.0,2.0,82,0.00,,,0.00,0.000000,,2013-02-18 12:02:00,
2013-02-18 07:32:00,4.0,0.0,-100.00,SW,227,0.0,2.0,82,0.00,,,0.00,0.000000,,2013-02-18 12:32:00,
2013-02-18 07:42:00,4.0,0.0,-100.00,SW,227,0.0,2.0,82,0.00,,,0.00,0.000000,,2013-02-18 12:42:00,
2013-02-18 07:54:00,4.0,0.0,-100.00,SW,227,0.0,2.0,82,0.00,,,0.00,0.000000,,2013-02-18 12:54:00,
2013-02-18 08:03:00,4.0,0.0,-100.00,SW,227,0.0,2.0,82,0.00,,,0.00,0.000000,,2013-02-18 13:03:00,
2013-02-18 08:33:00,5.0,0.0,-100.00,SW,216,0.0,0.0,80,0.00,,,-99.99,7.000000,,2013-02-18 13:33:00,
2013-02-18 08:42:00,5.0,0.0,-100.00,SW,216,0.0,0.0,80,0.00,,,-99.99,7.000000,,2013-02-18 13:42:00,
2013-02-18 08:53:00,5.0,0.0,-100.00,SW,216,0.0,0.0,80,0.00,,,-99.99,7.000000,,2013-02-18 13:53:00,
2013-02-18 09:02:00,5.0,0.0,-100.00,SW,216,0.0,0.0,80,0.00,,,-99.99,7.000000,,2013-02-18 14:02:00,
2013-02-18 09:34:00,13.0,7.0,-100.00,South,182,0.0,2.0,78,0.00,,,0.00,58.000000,,2013-02-18 14:34:00,
2013-02-18 09:42:00,13.0,7.0,-100.00,South,182,0.0,2.0,78,0.00,,,0.00,58.000000,,2013-02-18 14:42:00,
2013-02-18 09:54:00,13.0,7.0,-100.00,South,182,0.0,2.0,78,0.00,,,0.00,58.000000,,2013-02-18 14:54:00,
2013-02-18 10:02:00,13.0,7.0,-100.00,South,182,0.0,2.0,78,0.00,,,0.00,58.000000,,2013-02-18 15:02:00,
2013-02-18 10:32:00,24.0,10.0,-100.00,South,182,3.0,6.0,54,0.03,,,0.03,214.000000,,2013-02-18 15:32:00,
2013-02-18 11:03:00,24.0,10.0,-100.00,South,182,3.0,6.0,54,0.03,,,0.03,214.000000,,2013-02-18 16:03:00,
2013-02-18 11:33:00,27.0,9.0,-100.00,South,182,6.0,12.0,47,0.01,,,0.04,385.000000,,2013-02-18 16:33:00,
2013-02-18 11:53:00,27.0,9.0,-100.00,South,182,6.0,12.0,47,0.01,,,0.04,385.000000,,2013-02-18 16:53:00,
2013-02-18 12:04:00,27.0,9.0,-100.00,South,182,6.0,12.0,47,0.01,,,0.04,385.000000,,2013-02-18 17:04:00,
2013-02-18 12:33:00,29.0,10.0,-100.00,South,178,7.0,11.0,45,0.00,,,0.04,538.000000,,2013-02-18 17:33:00,
2013-02-18 12:43:00,29.0,10.0,-100.00,South,178,7.0,11.0,45,0.00,,,0.04,538.000000,,2013-02-18 17:43:00,
2013-02-18 12:53:00,29.0,10.0,-100.00,South,178,7.0,11.0,45,0.00,,,0.04,538.000000,,2013-02-18 17:53:00,
2013-02-18 13:02:00,29.0,10.0,-100.00,South,178,7.0,11.0,45,0.00,,,0.04,538.000000,,2013-02-18 18:02:00,
2013-02-18 13:33:00,34.0,14.0,-100.00,South,175,6.0,12.0,43,0.00,,,0.04,638.000000,,2013-02-18 18:33:00,
2013-02-18 13:43:00,34.0,14.0,-100.00,South,175,6.0,12.0,43,0.00,,,0.04,638.000000,,2013-02-18 18:43:00,
2013-02-18 13:53:00,34.0,14.0,-100.00,South,175,6.0,12.0,43,0.00,,,0.04,638.000000,,2013-02-18 18:53:00,
2013-02-18 14:03:00,34.0,14.0,-100.00,South,175,6.0,12.0,43,0.00,,,0.04,638.000000,,2013-02-18 19:03:00,
2013-02-18 14:34:00,36.0,10.0,-100.00,South,175,8.0,13.0,33,0.00,,,0.04,565.000000,,2013-02-18 19:34:00,
2013-02-18 14:43:00,36.0,10.0,-100.00,South,175,8.0,13.0,33,0.00,,,0.04,565.000000,,2013-02-18 19:43:00,
2013-02-18 14:53:00,36.0,10.0,-100.00,South,175,8.0,13.0,33,0.00,,,0.04,565.000000,,2013-02-18 19:53:00,
2013-02-18 15:03:00,36.0,10.0,-100.00,South,175,8.0,13.0,33,0.00,,,0.04,565.000000,,2013-02-18 20:03:00,
2013-02-18 16:33:00,37.0,11.0,-100.00,South,174,9.0,15.0,33,-99.99,,,0.04,264.000000,,2013-02-18 21:33:00,
2013-02-18 16:43:00,37.0,11.0,-100.00,South,174,9.0,15.0,33,-99.99,,,0.04,264.000000,,2013-02-18 21:43:00,
2013-02-18 16:53:00,37.0,11.0,-100.00,South,174,9.0,15.0,33,-99.99,,,0.04,264.000000,,2013-02-18 21:53:00,
2013-02-18 17:03:00,37.0,11.0,-100.00,South,174,9.0,15.0,33,-99.99,,,0.04,264.000000,,2013-02-18 22:03:00,
2013-02-18 18:34:00,34.0,12.0,-100.00,South,177,7.0,16.0,39,-99.99,,,0.04,18.000000,,2013-02-18 23:34:00,
2013-02-18 18:43:00,34.0,12.0,-100.00,South,177,7.0,16.0,39,-99.99,,,0.04,18.000000,,2013-02-18 23:43:00,
2013-02-18 18:54:00,34.0,12.0,-100.00,South,177,7.0,16.0,39,-99.99,,,0.04,18.000000,,2013-02-18 23:54:00,
2013-02-18 19:03:00,34.0,12.0,-100.00,South,177,7.0,16.0,39,-99.99,,,0.04,18.000000,,2013-02-19 00:03:00,
2013-02-18 19:36:00,34.0,13.0,-100.00,South,182,5.0,11.0,41,0.00,,,0.04,0.000000,,2013-02-19 00:36:00,
2013-02-18 19:44:00,34.0,13.0,-100.00,South,182,5.0,11.0,41,0.00,,,0.04,0.000000,,2013-02-19 00:44:00,
2013-02-18 19:55:00,34.0,13.0,-100.00,South,182,5.0,11.0,41,0.00,,,0.04,0.000000,,2013-02-19 00:55:00,
2013-02-18 20:03:00,34.0,13.0,-100.00,South,182,5.0,11.0,41,0.00,,,0.04,0.000000,,2013-02-19 01:03:00,
2013-02-18 20:35:00,34.0,13.0,-100.00,South,184,4.0,12.0,42,0.00,,,-99.99,0.000000,,2013-02-19 01:35:00,
2013-02-18 20:45:00,34.0,13.0,-100.00,South,184,4.0,12.0,42,0.00,,,-99.99,0.000000,,2013-02-19 01:45:00,
2013-02-18 20:56:00,34.0,13.0,-100.00,South,184,4.0,12.0,42,0.00,,,-99.99,0.000000,,2013-02-19 01:56:00,
2013-02-18 21:04:00,34.0,13.0,-100.00,South,184,4.0,12.0,42,0.00,,,-99.99,0.000000,,2013-02-19 02:04:00,
2013-02-18 21:07:00,35.0,15.0,-100.00,South,178,6.0,12.0,44,0.00,,,0.04,0.000000,,2013-02-19 02:07:00,
2013-02-18 21:35:00,35.0,15.0,-100.00,South,178,6.0,12.0,44,0.00,,,0.04,0.000000,,2013-02-19 02:35:00,
2013-02-18 21:44:00,35.0,15.0,-100.00,South,178,6.0,12.0,44,0.00,,,0.04,0.000000,,2013-02-19 02:44:00,
2013-02-18 21:56:00,35.0,15.0,-100.00,South,178,6.0,12.0,44,0.00,,,0.04,0.000000,,2013-02-19 02:56:00,
2013-02-18 22:35:00,34.0,16.0,-100.00,SSW,194,3.0,12.0,48,0.00,,,0.04,0.000000,,2013-02-19 03:35:00,
2013-02-18 22:45:00,34.0,16.0,-100.00,SSW,194,3.0,12.0,48,0.00,,,0.04,0.000000,,2013-02-19 03:45:00,
2013-02-18 22:55:00,34.0,16.0,-100.00,SSW,194,3.0,12.0,48,0.00,,,0.04,0.000000,,2013-02-19 03:55:00,
2013-02-18 23:03:00,34.0,16.0,-100.00,SSW,194,3.0,12.0,48,0.00,,,0.04,0.000000,,2013-02-19 04:03:00,
2013-02-18 23:34:00,35.0,20.0,-100.00,South,189,5.0,11.0,53,0.00,,,0.04,0.000000,,2013-02-19 04:34:00,
2013-02-18 23:45:00,35.0,20.0,-100.00,South,189,5.0,11.0,53,0.00,,,0.04,0.000000,,2013-02-19 04:45:00,
2013-02-18 23:56:00,35.0,20.0,-100.00,South,189,5.0,11.0,53,0.00,,,0.04,0.000000,,2013-02-19 04:56:00,